Location: Heiligenberg
(48.5381°N, 7.3897°E)
Time: 22:52:24
(UTC+00:00)

Cosmos 332 Rocket - Pass Details

Date: 26 May 2022
Orbit: 681 x 703 km, 74.0° (Epoch: 02 July)

Event Time Altitude Azimuth Distance (km) Brightness Sun altitude
Exits shadow 00:28:27 33° 156° (SSE) 1,153 4.5 -19.0°
Maximum altitude 00:30:08 47° 106° (ESE) 905 4.3 -19.0°
Drops below altitude 10° 00:34:44 10° 33° (NNE) 2,133 7.4 -18.8°
Sets 00:37:06 0° 28° (NNE) 3,053 8.7 -18.6°
